Content
SEND FEEDBACK

Daily
Averages
Monthly
Summary
United States of America

ROLLA, MISSOURI


Home > North America > United States > Missouri
Elevation: 1095 feet     Latitude: 38 07N     Longitude: 091 46W

WEATHER
 
SELECT A DAY
Number of Records: 205,050;   Date Range: 1/1/95 - 10/30/14
 
SHARE

PRINT THIS DATA

[ ← Previous Day ]
WEATHER ALMANAC - JUNE 17, 2014
[ Next Day → ]
[ °C ]   °F
Weather ElementAverageHighLow
Temperature79.2 °F86 °F (2:53 pm)73 °F (4:53 am)
Dewpoint69.7 °F71.1 °F (9:53 am)68 °F (1:53 am)
Humidity73.2 %87 % (4:53 am)61 % (2:53 pm)
Barometer29.93 in29.99 in (8:53 am)29.87 in (1:53 am)
Wind Speed13.3 mph19.6 mph (10:53 am)
Wind Gust25.3 mph (1:53 am)
Weather ElementAverage
Visibility9.9 mi
Wind DirectionSSW (189.1 °)

Weather ElementTotal
Precipitation---
Cooling Degree Days14.5 (Base 65)
Growing Degree Days29.5 (Base 50)
Averaged from 23 records on June 17, 2014
WEATHER CONDITIONS BREAKOUT
WIND DIRECTION BREAKOUT
WEATHER BY HOUR - JUNE 17, 2014
[ °C ]   °F
Local TimeTemperatureDewpointHumidityBarometerVisibilityWind DirectionWind SpeedGust SpeedPrecipitationEventsConditions
1:53 AM75.0 °F68.0 °F79 %29.87 in10.0 miSouth (190°)16.1 mph25.3 mphClear
2:53 AM75.0 °F68.0 °F79 %29.88 in10.0 miSouth (190°)12.7 mph25.3 mphClear
3:53 AM73.9 °F68.0 °F82 %29.90 in10.0 miSSW (200°)12.7 mphClear
4:53 AM73.0 °F69.1 °F87 %29.91 in10.0 miSouth (190°)10.4 mphClear
5:53 AM73.0 °F69.1 °F87 %29.92 in9.0 miSouth (190°)11.5 mphClear
6:53 AM73.0 °F69.1 °F87 %29.95 in9.0 miSSW (200°)11.5 mphClear
7:53 AM75.9 °F70.0 °F82 %29.96 in10.0 miSouth (190°)13.8 mph19.6 mphClear
8:53 AM78.1 °F70.0 °F76 %29.99 in10.0 miSSW (210°)10.4 mphClear
9:53 AM80.1 °F71.1 °F74 %29.99 in10.0 miSSW (200°)17.3 mph20.7 mphPartly Cloudy
10:53 AM82.0 °F71.1 °F69 %29.97 in10.0 miSSW (200°)19.6 mph25.3 mphClear
11:53 AM82.9 °F71.1 °F67 %29.96 in10.0 miSSW (210°)12.7 mph23.0 mphPartly Cloudy
12:53 PM84.0 °F71.1 °F65 %29.96 in10.0 miSouth (190°)13.8 mphScattered Clouds
1:53 PM84.0 °F70.0 °F63 %29.94 in10.0 miSSW (200°)12.7 mph19.6 mphMostly Cloudy
2:53 PM86.0 °F71.1 °F61 %29.92 in10.0 miSSW (210°)15.0 mph21.9 mphScattered Clouds
3:53 PM84.9 °F70.0 °F61 %29.92 in10.0 miSouth (180°)12.7 mph21.9 mphScattered Clouds
4:53 PM84.0 °F70.0 °F63 %29.91 in10.0 miSouth (190°)16.1 mph23.0 mphScattered Clouds
5:53 PM84.0 °F70.0 °F63 %29.91 in10.0 miSouth (170°)12.7 mphPartly Cloudy
6:53 PM82.0 °F69.1 °F65 %29.91 in10.0 miSouth (170°)10.4 mphClear
7:53 PM81.0 °F69.1 °F67 %29.91 in10.0 miSouth (180°)12.7 mphClear
8:53 PM79.0 °F69.1 °F72 %29.91 in10.0 miSouth (170°)11.5 mphClear
9:53 PM78.1 °F69.1 °F74 %29.92 in10.0 miSSE (160°)15.0 mph21.9 mphClear
10:53 PM77.0 °F70.0 °F79 %29.94 in10.0 miSouth (180°)12.7 mphClear
11:53 PM75.9 °F70.0 °F82 %29.92 in10.0 miSouth (180°)12.7 mphClear
Hourly data recorded from KVIH, located miles away from Rolla, Missouri







STORIES FROM OUR PARTNERS